PDT,Max TemperatureF,Mean TemperatureF,Min TemperatureF,Max Dew PointF,MeanDew PointF,Min DewpointF,Max Humidity, Mean Humidity, Min Humidity, Max Sea Level PressureIn, Mean Sea Level PressureIn, Min Sea Level PressureIn, Max VisibilityMiles, Mean VisibilityMiles, Min VisibilityMiles, Max Wind SpeedMPH, Mean Wind SpeedMPH, Max Gust SpeedMPH,PrecipitationIn, CloudCover, Events, WindDirDegrees
2012-10-1,83,59,34,32,27,24,59,36,13,30.31,30.18,30.07,10,10,10,14,3,22,0.00,0,,139
2012-10-2,85,62,38,28,24,20,50,30,10,30.13,30.01,29.91,10,10,7,23,6,31,0.00,0,,278
2012-10-3,76,55,33,25,14,2,50,29,7,30.09,30.04,29.95,10,10,9,16,4,22,0.00,0,,223
2012-10-4,74,52,30,19,9,2,32,21,10,30.18,30.09,30.00,10,10,4,25,8,32,0.00,0,,73
2012-10-5,71,49,26,21,13,7,39,25,11,30.23,30.13,30.06,10,10,10,21,4,26,0.00,0,,53
2012-10-6,68,48,27,15,10,3,47,28,8,30.21,30.12,30.02,10,10,10,12,3,15,0.00,0,,66
2012-10-7,70,46,22,13,8,-1,54,30,6,30.21,30.10,30.01,10,10,10,9,2,10,0.00,0,,55
2012-10-8,76,52,28,20,11,4,36,24,11,30.09,29.98,29.87,10,10,9,13,4,17,0.00,0,,62
2012-10-9,77,54,30,22,17,11,47,29,11,30.05,29.96,29.88,10,10,7,9,2,13,0.00,0,,66
2012-10-10,77,57,37,39,24,14,54,35,15,30.04,29.93,29.83,10,10,7,21,4,29,0.00,1,,27
2012-10-11,77,58,39,48,37,31,74,48,21,29.95,29.88,29.78,10,10,7,25,6,35,0.02,2,Rain,78
2012-10-12,70,55,40,45,40,35,86,59,32,29.98,29.89,29.80,10,10,10,21,5,26,0.01,4,Thunderstorm,206
2012-10-13,67,53,38,41,36,31,89,60,31,30.29,30.18,30.02,10,10,10,15,3,22,0.00,3,,252
2012-10-14,73,53,32,36,30,27,82,52,22,30.40,30.26,30.13,10,10,7,8,2,12,0.00,0,,92
2012-10-15,74,56,37,34,29,26,64,41,17,30.15,30.06,29.97,10,10,10,17,5,22,0.00,0,,251
2012-10-16,76,55,33,52,33,18,65,46,27,30.12,29.93,29.79,10,10,4,38,11,44,T,1,Rain,284
2012-10-17,64,45,25,23,15,7,69,40,11,30.27,30.21,30.13,10,10,10,14,4,17,0.00,0,,179
2012-10-18,69,45,21,19,13,7,50,32,13,30.38,30.24,30.15,10,10,5,7,2,8,0.00,0,,73
2012-10-19,75,50,25,22,15,10,55,34,12,30.18,30.06,29.83,10,8,2,18,4,31,0.00,0,,178
2012-10-20,71,55,38,30,23,18,43,30,17,29.83,29.74,29.64,10,10,10,28,8,33,0.00,2,,260
2012-10-21,62,47,32,29,22,17,64,42,19,29.83,29.75,29.69,10,10,10,20,4,25,0.00,2,,246
2012-10-22,54,45,36,41,35,29,92,67,41,29.79,29.67,29.55,10,10,8,23,7,29,0.14,6,Rain-Thunderstorm,240
2012-10-23,39,34,28,33,30,28,92,78,64,30.00,29.93,29.76,10,9,4,22,3,26,T,7,Snow,217
2012-10-24,45,32,19,32,27,17,92,71,49,30.20,30.07,29.97,10,8,2,22,4,28,0.04,5,Snow-Thunderstorm,223
2012-10-25,45,34,23,31,26,20,100,69,37,30.49,30.30,30.14,10,9,1,15,4,20,0.04,4,Snow,265
2012-10-26,50,33,15,23,19,12,88,59,29,30.54,30.37,30.24,10,10,10,14,4,20,0.00,1,,194
2012-10-27,56,39,22,31,27,20,81,58,35,30.29,30.21,30.16,10,10,10,15,3,18,0.00,1,,237
2012-10-28,67,48,28,36,32,26,92,62,32,30.24,30.15,30.06,10,10,10,13,3,15,0.00,0,,226
2012-10-29,71,51,31,34,28,24,89,54,18,30.24,30.16,30.10,10,10,10,16,4,22,0.00,0,,212
2012-10-30,71,49,26,27,23,20,81,48,14,30.26,30.15,30.06,10,10,7,12,3,15,0.00,0,,66
2012-10-31,72,52,31,24,19,17,63,38,13,30.13,29.99,29.86,10,10,9,23,9,30,0.00,0,,134